Location: Briese
(52.7048°N, 13.3016°E)
Time: 11:55:16
(UTC+00:00)

Daily predictions for brighter satellites

Satellite Brightness Start Highest point End
(mag) Time Altitude Azimuth Time Altitude Azimuth Time Altitude Azimuth
CENTAUR R/B 2.7 20:10:42 10° SW 20:16:48 83° SE 20:24:12 10° NE
Cosmos 2173 Rocket 4.2 20:15:42 10° N 20:22:05 73° ENE 20:28:28 10° SSE
COSMOS 2428 4.4 20:20:19 10° SE 20:23:27 15° E 20:26:35 10° ENE
Cosmos 1315 Rocket 4.3 20:20:29 10° NNW 20:24:18 37° W 20:28:07 10° SSW
Cosmos 2016 Rocket 4.3 20:18:55 10° N 20:24:55 54° ENE 20:30:53 10° SSE
USA 81 4.5 20:20:13 10° NNW 20:25:27 66° W 20:30:40 10° S
Cosmos 1544 Rocket 3.9 20:22:08 10° N 20:26:34 57° ENE 20:30:57 10° SSE
Cosmos 1674 2.8 20:23:56 10° S 20:27:35 57° E 20:31:14 10° NNE
Cosmos 1980 Rocket 3.8 20:22:49 10° WSW 20:28:08 41° NW 20:33:26 10° NNE
Cosmos 2237 4.5 20:22:47 10° S 20:28:17 51° ESE 20:33:46 10° NE
Cosmos 2278 Rocket 3.7 20:24:35 10° NNW 20:29:30 29° NE 20:34:24 10° E
Cosmos 1455 Rocket 3.2 20:27:08 10° NNW 20:31:36 85° W 20:36:04 10° S
Cosmos 1300 3.8 20:28:33 10° N 20:32:01 31° ENE 20:35:27 10° SE
USA 267 3.6 20:29:11 10° E 20:35:41 72° NNE 20:42:13 10° WNW
Cosmos 1725 Rocket 4.3 20:30:11 10° N 20:36:17 57° ENE 20:42:21 10° SSE
Cosmos 1727 Rocket 4.2 20:30:20 10° SSW 20:36:40 82° W 20:42:59 10° N
Cosmos 1726 4.4 20:37:30 10° NW 20:40:17 21° W 20:43:03 10° SW
Cosmos 1844 Rocket 2.9 20:36:10 10° NNW 20:41:51 75° WSW 20:47:30 10° SSE
Cosmos 1110 Rocket 4.3 20:37:15 10° S 20:42:13 49° ESE 20:47:15 10° NE
BREEZE-M DEB (TANK) 3.6 20:41:55 10° SSW 20:44:29 32° SE 20:49:54 10° E
Cosmos 968 Rocket 4.1 20:43:29 10° NNW 20:48:26 46° ENE 20:53:21 10° SE
Cosmos 1802 Rocket 4.1 20:42:57 10° N 20:49:14 88° E 20:55:34 10° S
Cosmos 1908 3.6 20:46:15 10° NNW 20:50:07 61° W 20:53:56 10° S
Cosmos 292 Rocket 4.4 20:47:31 10° SW 20:52:18 60° WNW 20:57:06 10° NNE
Cosmos 2263 Rocket 4.5 20:50:23 10° WNW 20:53:55 17° W 20:57:28 10° SW
Cosmos 1900 4.4 20:49:54 10° NW 20:54:50 74° SW 20:59:24 12° SSE
Cosmos 1340 3.2 20:51:54 10° SSE 20:55:26 41° E 20:59:01 10° NNE
Lacrosse 5 rocket 2.2 20:53:16 10° S 20:56:09 22° SE 20:59:01 10° E
SPOT 5 3.4 20:53:46 10° S 20:58:52 61° WSW 21:03:45 10° NNW
Cosmos 405 3.0 20:55:37 10° N 20:59:05 70° ENE 21:02:06 13° SSE
GEOS 3 Rocket 3.8 20:55:18 10° SE 21:00:40 77° NE 21:06:01 10° NW
DNEPR-1 R/B 3.5 20:58:01 10° NW 21:02:17 83° SW 21:06:16 12° SE
Cosmos 1536 Rocket 4.0 20:58:17 10° SSE 21:02:30 48° E 21:06:48 10° NNE
Cosmos 1452 Rocket 4.0 20:58:45 10° SW 21:04:01 67° WNW 21:09:18 10° NNE
Cosmos 1459 Rocket 4.4 21:01:53 10° NNW 21:07:49 59° W 21:13:44 10° S
Cosmos 1953 3.7 21:06:49 10° NNW 21:10:34 35° W 21:14:17 10° SSW
Terra 2.2 21:06:13 10° S 21:10:55 63° WSW 21:15:41 10° NNW
Resurs 01 Rocket 4.3 21:09:05 10° WSW 21:11:08 13° W 21:13:11 10° WNW
Lacrosse 5 4.0 21:09:23 10° W 21:12:02 14° WSW 21:14:40 10° SSW
Cosmos 1943 Rocket 4.5 21:09:47 10° NNW 21:13:38 19° NNE 21:17:28 10° ENE
Cosmos 2333 Rocket 2.6 21:09:40 10° S 21:15:07 46° ESE 21:20:35 10° NE
Cosmos 1025 Rocket 3.2 21:10:55 10° SSW 21:15:19 77° WNW 21:19:43 10° N
NOSS 3-2 (C) 4.1 21:14:43 10° WSW 21:20:34 61° NW 21:27:27 10° NE
Cosmos 2228 3.5 21:16:44 10° N 21:21:03 50° ENE 21:24:34 15° SSE
SL-14 R/B 3.3 21:17:36 10° S 21:21:39 84° E 21:25:42 10° NNE
Cosmos 2061 Rocket 4.3 21:17:01 10° NNW 21:23:26 70° W 21:29:43 10° S
FALCON 9 DEB 3.5 21:20:31 10° SW 21:23:44 40° SSE 21:26:58 10° E
Cosmos 1975 Rocket 4.5 21:21:19 10° SW 21:25:23 37° WNW 21:29:30 10° N
Cosmos 1844 4.4 21:20:10 10° NW 21:25:26 44° WSW 21:30:18 12° S
ATLAS 3B R/B 2.9 21:20:49 10° SSW 21:27:04 49° ESE 21:33:33 10° NE
Cosmos 1461 4.5 21:24:31 10° WNW 21:27:56 24° WSW 21:30:58 11° SSW
Cosmos 1331 Rocket 4.1 21:24:42 10° SSW 21:29:57 82° WNW 21:35:18 10° NNE
ERS-1 Rocket 4.3 21:25:27 10° SSW 21:30:01 34° W 21:34:38 10° NNW
Cosmos 2219 Rocket 2.5 21:24:51 10° S 21:30:19 51° ESE 21:35:49 10° NE
Cosmos 1626 3.0 21:28:05 10° SSW 21:31:40 48° WNW 21:35:16 10° N
Meteor 2-10 Rocket 3.5 21:28:33 10° N 21:33:43 74° ENE 21:37:47 16° SSE
Meteor 1-24 Rocket 3.7 21:30:57 13° S 21:35:40 64° E 21:41:08 10° NNE
Cosmos 2123 Rocket 4.2 21:34:54 10° SSW 21:41:11 73° WNW 21:47:34 10° N
BREEZE-M DEB (TANK) 2.8 21:39:16 10° SW 21:42:06 41° SSE 21:48:39 10° E
USA 215 3.5 21:36:31 10° ENE 21:42:47 46° SE 21:49:00 10° SSW
ATLAS CENTAUR R/B 2.2 21:39:16 10° NW 21:43:19 41° SW 21:46:25 17° S
Cosmos 2058 Rocket 4.1 21:40:46 10° N 21:44:57 37° ENE 21:48:18 15° SE
FALCON 9 DEB 4.1 21:44:47 22° SSE 21:45:10 22° SE 21:47:40 10° E
Cosmos 2237 Rocket 3.5 21:42:20 15° SE 21:45:32 24° ESE 21:49:54 10° NE
FALCON 9 DEB 4.4 21:47:54 19° SE 21:47:54 19° SE 21:49:56 10° E
Cosmos 1867 3.6 21:42:12 10° NW 21:47:43 81° SW 21:52:15 15° SE
Cosmos 2233 Rocket 4.1 21:41:36 10° NNW 21:47:44 74° W 21:53:01 14° S
Cosmos 1302 Rocket 4.0 21:42:46 10° SSW 21:48:01 78° ESE 21:53:18 10° NNE
Iridium 2 4.3 21:48:10 19° SSE 21:50:30 42° E 21:54:04 10° NNE
SL-16 R/B 3.9 21:45:49 10° WSW 21:50:59 35° NW 21:56:11 10° NNE
Cosmos 2360 Rocket 2.8 21:46:34 10° SW 21:52:08 58° NW 21:57:44 10° NNE
Cosmos 2322 Rocket 3.6 21:48:20 10° WSW 21:53:41 40° NW 21:59:04 10° NNE
FALCON 9 DEB 4.0 21:53:43 23° SSE 21:54:13 24° SSE 21:56:48 10° E
Cosmos 1726 Rocket 3.7 21:50:53 10° N 21:55:22 70° ENE 21:58:33 19° SSE
Spot 4 3.8 21:52:23 17° SSE 21:56:03 84° ENE 22:00:51 10° NNW
Cosmos 1455 2.5 21:56:20 10° N 22:00:09 60° ENE 22:02:38 20° SSE
Cosmos 389 Rocket 2.5 21:57:59 10° NNW 22:01:24 72° W 22:03:30 22° S
NOSS 0 Rocket 4.4 22:01:25 16° S 22:05:55 43° ESE 22:11:46 10° NE
COSMOS 2428 2.7 22:01:03 10° SSW 22:06:46 75° ESE 22:12:32 10° NE
Cosmos 1300 4.4 22:04:20 10° NNW 22:07:34 26° W 22:10:36 11° SW
CENTAUR R/B 4.1 22:01:57 10° W 22:08:13 44° NNW 22:15:39 10° NE
Meteor 1-4 Rocket 4.3 22:05:21 10° N 22:08:14 23° ENE 22:10:44 12° ESE
Cosmos 1606 Rocket 3.7 22:04:52 10° NNW 22:09:22 71° W 22:12:29 19° S
Cosmos 2322 3.8 22:04:07 10° SW 22:09:47 80° WNW 22:15:29 10° NNE
Cosmos 2278 Rocket 2.2 22:08:30 10° NNW 22:14:11 78° WSW 22:18:27 18° SSE
ALOS 2 2.7 22:11:48 19° SSE 22:14:52 75° ENE 22:19:17 10° NNW
Cosmos 1892 Rocket 3.8 22:12:19 20° S 22:15:13 58° E 22:19:36 10° NNE
SJ 16-02 3.2 22:11:45 10° N 22:15:24 25° NE 22:19:03 10° ESE
COBE Rocket 3.9 22:12:19 19° SSE 22:16:01 89° E 22:21:00 10° NNW
Cosmos 1486 Rocket 4.4 22:12:06 10° NNW 22:17:12 53° WSW 22:20:48 19° S
USA 267 3.3 22:12:27 11° SE 22:18:49 64° SW 22:25:21 10° WNW
Cosmos 1346 Rocket 2.9 22:19:17 17° SSW 22:22:17 72° WNW 22:26:21 10° N
SL-4 R/B 3.5 22:30:03 17° SE 22:30:03 17° SE 22:32:00 10° E
Cosmos 1354 Rocket 4.1 22:24:50 10° NNW 22:30:12 78° WSW 22:33:59 20° SSE
Cosmos 1464 Rocket 4.1 22:25:10 10° N 22:31:33 88° W 22:36:22 19° S
Lacrosse 5 rocket 1.0 22:31:16 10° WSW 22:34:53 84° NNW 22:38:29 10° ENE
MTI 4.4 22:33:12 10° NNE 22:36:07 39° E 22:37:18 26° SSE
Cosmos 1992 Rocket 4.0 22:32:39 16° SSW 22:36:56 86° ESE 22:42:13 10° NNE
Cosmos 1184 Rocket 2.7 22:38:30 27° S 22:40:05 71° E 22:43:21 10° NNE
Cosmos 1607 4.1 22:36:44 10° NW 22:43:05 64° SW 22:47:52 18° SSE
Meteor 2-1 Rocket 4.2 22:39:29 10° NNW 22:45:00 76° W 22:48:54 20° S
Cosmos 1626 Rocket 4.2 22:43:28 20° SSE 22:46:09 44° E 22:50:23 10° NNE
Aureole 3 4.4 22:47:30 10° N 22:50:41 33° ENE 22:53:35 15° SE
Cosmos 1703 3.3 22:49:57 24° S 22:52:14 76° E 22:56:13 10° NNE
Cosmos 1602 Rocket 4.5 22:49:55 19° SSE 22:52:38 38° E 22:56:48 10° NNE
Cosmos 1441 Rocket 3.2 22:52:52 24° S 22:55:03 73° E 22:58:54 10° NNE
Cosmos 1980 3.7 22:50:45 17° SSW 22:55:08 73° ESE 23:00:50 10° NE
Cosmos 192 4.4 22:54:34 21° S 22:57:52 67° ESE 23:02:46 10° NNE
FALCON 9 DEB 3.0 22:56:14 18° SW 22:58:17 50° SSE 23:01:21 10° E
Cosmos 1943 Rocket 2.7 22:53:08 10° NNW 22:58:36 58° NE 23:04:01 10° SE
Cosmos 2333 Rocket 3.4 22:54:02 10° WSW 22:59:30 43° NW 23:04:58 10° NNE
FALCON 9 DEB 3.0 22:57:03 10° W 23:00:29 88° N 23:03:54 10° E
Cosmos 1328 3.9 22:59:39 24° S 23:01:48 61° E 23:05:40 10° NNE
Cosmos 2034 Rocket 4.1 22:58:45 10° NNW 23:04:57 73° W 23:09:25 20° S
BREEZE-M DEB (TANK) 2.9 23:00:55 10° SW 23:06:32 35° S 23:09:03 10° E
Okean 1-7 Rocket 3.7 23:06:13 21° SSW 23:09:11 75° W 23:13:40 10° N
NOSS 3-1 (C) 4.5 23:09:26 17° SSE 23:12:17 26° ESE 23:17:18 10° ENE
Resurs 1-4 Rocket 4.4 23:09:52 10° NE 23:12:23 13° E 23:14:53 10° ESE
SAR-Lupe-2 3.6 23:09:50 10° NNE 23:13:27 77° WNW 23:15:32 24° SSW
Cosmos 2219 Rocket 3.5 23:09:10 10° WSW 23:14:28 39° NW 23:19:48 10° NNE
EO 1 Del DPAF 4.3 23:12:21 10° NNE 23:15:45 33° E 23:17:43 20° SSE
ATLAS 3B R/B 3.3 23:11:15 10° WSW 23:17:45 57° NNW 23:24:34 10° NE
Cosmos-2242 3.6 23:13:29 10° N 23:17:49 55° ENE 23:21:04 17° SSE
FALCON 9 DEB 2.7 23:17:22 10° WSW 23:20:28 73° SSE 23:23:33 10° E
USA 32 4.0 23:15:12 10° N 23:20:29 82° W 23:24:07 21° S
CZ-2D R/B 4.3 23:17:54 10° NE 23:20:44 15° E 23:23:34 10° ESE
Lacrosse 4 Rocket 4.4 23:18:50 10° NNW 23:21:32 16° NNE 23:24:13 10° ENE
Cosmos 2058 Rocket 4.4 23:18:59 10° NNW 23:22:51 29° W 23:25:34 16° SW
FALCON 9 DEB 2.7 23:19:50 10° WSW 23:22:55 67° SSE 23:26:01 10° E
USA 40 PKM 4.5 23:18:21 10° WSW 23:23:49 80° SSE 23:27:21 10° ENE
SL-16 R/B 2.7 23:20:20 20° S 23:23:58 45° ESE 23:29:21 10° NE
Cosmos 1812 Rocket 3.5 23:21:06 10° NNW 23:25:28 81° W 23:28:14 22° S
USA 215 3.3 23:19:35 10° ENE 23:26:09 84° NNW 23:32:43 10° WSW
Cosmos 2237 Rocket 2.3 23:24:08 14° SW 23:29:03 74° WNW 23:34:43 10° NNE
FALCON 9 DEB 2.7 23:26:26 10° WSW 23:29:33 77° SSE 23:32:40 10° E
ATLAS CENTAUR R/B 3.9 23:25:37 16° SSW 23:30:39 64° SE 23:46:04 10° ENE
Thor Agena Rocket 3.6 23:27:20 10° NNE 23:32:39 85° WNW 23:36:27 19° SSW
Tsikada Rocket 4.0 23:28:42 19° S 23:33:19 86° W 23:39:32 10° N
GP-B 3.1 23:29:43 10° N 23:34:10 75° W 23:37:02 22° SSW
SL-16 R/B 3.8 23:28:36 10° SE 23:34:14 38° ENE 23:39:52 10° N
Cosmos 1455 4.5 23:33:05 10° NW 23:35:16 15° W 23:37:27 10° WSW
Cosmos 1825 4.3 23:33:56 10° SE 23:36:36 19° E 23:39:17 10° NE
Cosmos 2369 Rocket 2.7 23:31:32 10° NNW 23:37:14 61° NE 23:42:53 10° SE
Meteor 1-4 Rocket 3.6 23:40:08 10° NNW 23:43:17 31° W 23:44:52 21° SW
Cosmos 2221 4.2 23:43:07 10° N 23:46:56 29° ENE 23:50:42 10° SE
COSMOS 2428 4.4 23:46:35 10° W 23:51:37 30° NW 23:56:40 10° NNE
Meteor 1-27 4.2 23:48:20 10° NNW 23:53:55 76° W 23:58:11 18° S
SJ 16-02 1.6 23:50:00 10° NNW 23:54:16 52° WSW 23:57:00 21° S
